Location: Asheville, NC
(35.6000°N, 82.5500°W)
Time: 23:07:31
(UTC-04:00)

FALCONSAT 3 - Visible Passes

Search period start: 23 April 2018 00:00
Search period end: 03 May 2018 00:00
Orbit: 460 x 465 km, 35.4° (Epoch: 23 April)

Date Brightness Start Highest point End Pass type
(mag) Time Alt. Az. Time Alt. Az. Time Alt. Az.
26 Apr ? 06:08:36 10° SW 06:11:44 27° SSE 06:14:54 10° E visible
27 Apr ? 05:34:57 16° SSW 05:36:55 25° SSE 05:40:00 10° E visible
28 Apr ? 05:01:50 23° SSE 05:02:06 23° SSE 05:05:05 10° E visible
29 Apr ? 04:28:40 17° ESE 04:28:40 17° ESE 04:30:09 10° ESE visible
29 Apr ? 06:02:27 11° WSW 06:06:00 65° SSE 06:09:38 10° E visible
30 Apr ? 05:29:15 26° WSW 05:31:09 62° SSE 05:34:46 10° E visible
01 May ? 04:56:02 57° S 04:56:17 58° SSE 04:59:53 10° E visible
02 May ? 04:22:48 33° ESE 04:22:48 33° ESE 04:25:01 10° E visible
02 May ? 05:56:45 10° W 06:00:24 90° SSW 06:04:04 10° E visible
